Time,TemperatureF,DewpointF,PressureIn,WindDirection,WindDirectionDegrees,WindSpeedMPH,WindSpeedGustMPH,Humidity,HourlyPrecipIn,Conditions,Clouds,dailyrainin,SoftwareType,DateUTC
2013-02-14 00:01:00,40.0,37.0,30.22,SSE,149,0.0,0.0,90,0.00,,,0.00,,2013-02-14 08:01:00,
2013-02-14 00:11:00,40.0,37.0,30.22,SSE,149,0.0,0.0,90,0.00,,,0.00,,2013-02-14 08:11:00,
2013-02-14 00:21:00,40.0,38.0,30.22,SSE,149,0.0,0.0,91,0.00,,,0.00,,2013-02-14 08:21:00,
2013-02-14 00:31:00,40.0,38.0,30.22,SSE,149,0.0,0.0,91,0.00,,,0.00,,2013-02-14 08:31:00,
2013-02-14 00:43:00,40.0,38.0,30.22,SSE,149,0.0,0.0,91,0.00,,,0.00,,2013-02-14 08:43:00,
2013-02-14 00:52:00,40.0,37.0,30.23,SSE,149,0.0,0.0,90,0.00,,,0.00,,2013-02-14 08:52:00,
2013-02-14 01:01:00,39.0,36.0,30.23,SSE,149,0.0,0.0,90,0.00,,,0.00,,2013-02-14 09:01:00,
2013-02-14 01:11:00,39.0,37.0,30.23,SSE,149,0.0,0.0,91,0.00,,,0.00,,2013-02-14 09:11:00,
2013-02-14 01:21:00,39.0,37.0,30.23,SSE,149,0.0,0.0,91,0.00,,,0.00,,2013-02-14 09:21:00,
2013-02-14 01:31:00,39.0,37.0,30.23,SSE,149,0.0,0.0,92,0.00,,,0.00,,2013-02-14 09:31:00,
2013-02-14 01:41:00,39.0,37.0,30.23,SSE,149,0.0,0.0,92,0.00,,,0.00,,2013-02-14 09:41:00,
2013-02-14 01:51:00,38.0,36.0,30.24,SSE,149,0.0,0.0,93,0.00,,,0.00,,2013-02-14 09:51:00,
2013-02-14 02:02:00,38.0,36.0,30.24,SSE,149,0.0,0.0,93,0.00,,,0.00,,2013-02-14 10:02:00,
2013-02-14 02:11:00,38.0,36.0,30.24,SSE,149,0.0,0.0,94,0.00,,,0.00,,2013-02-14 10:11:00,
2013-02-14 02:21:00,38.0,36.0,30.24,SSE,149,0.0,0.0,94,0.00,,,0.00,,2013-02-14 10:21:00,
2013-02-14 02:31:00,38.0,36.0,30.23,SSE,149,0.0,0.0,94,0.00,,,0.00,,2013-02-14 10:31:00,
2013-02-14 02:41:00,38.0,36.0,30.23,SSE,149,0.0,0.0,94,0.00,,,0.00,,2013-02-14 10:41:00,
2013-02-14 02:52:00,37.0,35.0,30.23,SSE,149,0.0,0.0,93,0.00,,,0.00,,2013-02-14 10:52:00,
2013-02-14 03:01:00,36.0,34.0,30.23,SSE,149,0.0,0.0,93,0.00,,,0.00,,2013-02-14 11:01:00,
2013-02-14 03:11:00,36.0,35.0,30.23,SSE,149,0.0,0.0,95,0.00,,,0.00,,2013-02-14 11:11:00,
2013-02-14 03:21:00,36.0,35.0,30.23,SSE,149,0.0,0.0,95,0.00,,,0.00,,2013-02-14 11:21:00,
2013-02-14 03:31:00,36.0,35.0,30.23,SSE,149,0.0,0.0,95,0.00,,,0.00,,2013-02-14 11:31:00,
2013-02-14 03:41:00,36.0,35.0,30.23,SSE,149,0.0,0.0,95,0.00,,,0.00,,2013-02-14 11:41:00,
2013-02-14 03:52:00,36.0,35.0,30.23,SSE,149,0.0,0.0,95,0.00,,,0.00,,2013-02-14 11:52:00,
2013-02-14 04:01:00,36.0,35.0,30.22,SSE,149,0.0,0.0,95,0.00,,,0.00,,2013-02-14 12:01:00,
2013-02-14 04:11:00,36.0,35.0,30.22,SSE,149,0.0,0.0,95,0.00,,,0.00,,2013-02-14 12:11:00,
2013-02-14 04:21:00,36.0,35.0,30.22,SSE,149,0.0,0.0,95,0.00,,,0.00,,2013-02-14 12:21:00,
2013-02-14 04:31:00,36.0,35.0,30.22,SSE,149,0.0,0.0,95,0.00,,,0.00,,2013-02-14 12:31:00,
2013-02-14 04:41:00,36.0,35.0,30.22,SSE,149,0.0,0.0,95,0.00,,,0.00,,2013-02-14 12:41:00,
2013-02-14 04:53:00,36.0,35.0,30.22,SSE,149,0.0,0.0,95,0.00,,,0.00,,2013-02-14 12:53:00,
2013-02-14 05:01:00,35.0,34.0,30.22,SSE,149,0.0,0.0,95,0.00,,,0.00,,2013-02-14 13:01:00,
2013-02-14 05:11:00,35.0,34.0,30.22,SSE,149,0.0,0.0,95,0.00,,,0.00,,2013-02-14 13:11:00,
2013-02-14 05:21:00,35.0,34.0,30.22,SSE,149,0.0,0.0,95,0.00,,,0.00,,2013-02-14 13:21:00,
2013-02-14 05:31:00,35.0,34.0,30.22,SSE,149,0.0,0.0,95,0.00,,,0.00,,2013-02-14 13:31:00,
2013-02-14 05:41:00,35.0,34.0,30.22,SSE,149,0.0,0.0,95,0.00,,,0.00,,2013-02-14 13:41:00,
2013-02-14 05:51:00,34.0,33.0,30.22,SSE,149,0.0,0.0,95,0.00,,,0.00,,2013-02-14 13:51:00,
2013-02-14 06:01:00,34.0,33.0,30.22,SSE,149,0.0,0.0,96,0.00,,,0.00,,2013-02-14 14:01:00,
2013-02-14 06:11:00,35.0,34.0,30.22,SSE,149,0.0,0.0,96,0.00,,,0.00,,2013-02-14 14:11:00,
2013-02-14 06:21:00,35.0,34.0,30.22,SSE,149,0.0,0.0,96,0.00,,,0.00,,2013-02-14 14:21:00,
2013-02-14 06:31:00,35.0,34.0,30.22,SSE,149,0.0,1.0,96,0.00,,,0.00,,2013-02-14 14:31:00,
2013-02-14 06:41:00,35.0,34.0,30.22,SSE,149,0.0,1.0,96,0.00,,,0.00,,2013-02-14 14:41:00,
2013-02-14 06:52:00,35.0,34.0,30.23,SSE,149,0.0,0.0,96,0.00,,,0.00,,2013-02-14 14:52:00,
2013-02-14 07:01:00,34.0,33.0,30.22,SSE,149,0.0,0.0,96,0.00,,,0.00,,2013-02-14 15:01:00,
2013-02-14 07:11:00,34.0,33.0,30.22,SSE,149,0.0,0.0,96,0.00,,,0.00,,2013-02-14 15:11:00,
2013-02-14 07:21:00,34.0,33.0,30.22,SSE,149,0.0,0.0,96,0.00,,,0.00,,2013-02-14 15:21:00,
2013-02-14 07:31:00,34.0,33.0,30.23,SSE,149,0.0,0.0,97,0.00,,,0.00,,2013-02-14 15:31:00,
2013-02-14 07:41:00,34.0,33.0,30.23,SSE,149,0.0,0.0,97,0.00,,,0.00,,2013-02-14 15:41:00,
2013-02-14 07:51:00,35.0,34.0,30.23,SSE,149,0.0,0.0,97,0.00,,,0.00,,2013-02-14 15:51:00,
2013-02-14 08:01:00,36.0,35.0,30.24,SSE,149,0.0,0.0,97,0.00,,,0.00,,2013-02-14 16:01:00,
2013-02-14 08:11:00,37.0,36.0,30.24,SSE,149,0.0,1.0,97,0.00,,,0.00,,2013-02-14 16:11:00,
2013-02-14 08:21:00,37.0,36.0,30.24,SSE,149,0.0,1.0,97,0.00,,,0.00,,2013-02-14 16:21:00,
2013-02-14 08:31:00,37.0,36.0,30.25,SSE,149,0.0,1.0,97,0.00,,,0.00,,2013-02-14 16:31:00,
2013-02-14 08:41:00,37.0,36.0,30.25,SSE,149,0.0,1.0,97,0.00,,,0.00,,2013-02-14 16:41:00,
2013-02-14 08:51:00,39.0,38.0,30.25,SSE,149,0.0,0.0,97,0.00,,,0.00,,2013-02-14 16:51:00,
2013-02-14 09:01:00,42.0,41.0,30.25,SSE,149,0.0,2.0,97,0.00,,,0.00,,2013-02-14 17:01:00,
2013-02-14 09:11:00,44.0,42.0,30.24,SSE,150,0.0,2.0,92,0.00,,,0.00,,2013-02-14 17:11:00,
2013-02-14 09:21:00,44.0,42.0,30.24,SSE,150,0.0,2.0,92,0.00,,,0.00,,2013-02-14 17:21:00,
2013-02-14 09:31:00,46.0,42.0,30.24,SSE,150,0.0,2.0,87,0.00,,,0.00,,2013-02-14 17:31:00,
2013-02-14 09:41:00,46.0,42.0,30.24,SSE,150,0.0,2.0,87,0.00,,,0.00,,2013-02-14 17:41:00,
2013-02-14 09:52:00,48.0,44.0,30.24,SSE,148,0.0,2.0,85,0.00,,,0.00,,2013-02-14 17:52:00,
2013-02-14 10:01:00,50.0,44.0,30.24,SSE,148,0.0,1.0,79,0.00,,,0.00,,2013-02-14 18:01:00,
2013-02-14 10:11:00,50.0,44.0,30.24,SSE,148,0.0,1.0,79,0.00,,,0.00,,2013-02-14 18:11:00,
2013-02-14 10:22:00,52.0,45.0,30.24,SSE,148,0.0,1.0,76,0.00,,,0.00,,2013-02-14 18:22:00,
2013-02-14 10:31:00,53.0,45.0,30.24,NNW,345,0.0,3.0,73,0.00,,,0.00,,2013-02-14 18:31:00,
2013-02-14 10:41:00,53.0,45.0,30.24,NNW,345,0.0,3.0,73,0.00,,,0.00,,2013-02-14 18:41:00,
2013-02-14 10:52:00,53.0,45.0,30.24,NNW,345,0.0,3.0,73,0.00,,,0.00,,2013-02-14 18:52:00,
2013-02-14 11:01:00,55.0,44.0,30.24,NW,317,0.0,3.0,66,0.00,,,0.00,,2013-02-14 19:01:00,
2013-02-14 11:11:00,56.0,46.0,30.24,NW,319,0.0,1.0,70,0.00,,,0.00,,2013-02-14 19:11:00,
2013-02-14 11:21:00,56.0,46.0,30.24,NW,319,0.0,1.0,70,0.00,,,0.00,,2013-02-14 19:21:00,
2013-02-14 11:31:00,58.0,45.0,30.23,NW,326,0.0,1.0,62,0.00,,,0.00,,2013-02-14 19:31:00,
2013-02-14 11:41:00,58.0,45.0,30.23,NW,326,0.0,1.0,62,0.00,,,0.00,,2013-02-14 19:41:00,
2013-02-14 11:52:00,58.0,45.0,30.23,NNW,327,0.0,2.0,61,0.00,,,0.00,,2013-02-14 19:52:00,
2013-02-14 12:01:00,60.0,46.0,30.22,NNW,331,0.0,3.0,60,0.00,,,0.00,,2013-02-14 20:01:00,
2013-02-14 12:11:00,60.0,44.0,30.21,NE,37,0.0,2.0,56,0.00,,,0.00,,2013-02-14 20:11:00,
2013-02-14 12:21:00,60.0,44.0,30.21,NE,37,0.0,2.0,56,0.00,,,0.00,,2013-02-14 20:21:00,
2013-02-14 12:31:00,61.0,44.0,30.20,NNW,331,0.0,4.0,54,0.00,,,0.00,,2013-02-14 20:31:00,
2013-02-14 12:41:00,61.0,44.0,30.20,NNW,331,0.0,4.0,54,0.00,,,0.00,,2013-02-14 20:41:00,
2013-02-14 12:52:00,61.0,44.0,30.20,NNW,331,0.0,4.0,54,0.00,,,0.00,,2013-02-14 20:52:00,
2013-02-14 13:01:00,62.0,44.0,30.20,NNW,343,1.0,5.0,51,0.00,,,0.00,,2013-02-14 21:01:00,
2013-02-14 13:11:00,62.0,44.0,30.20,NNW,343,1.0,5.0,51,0.00,,,0.00,,2013-02-14 21:11:00,
2013-02-14 13:21:00,64.0,45.0,30.20,NNE,25,0.0,2.0,50,0.00,,,0.00,,2013-02-14 21:21:00,
2013-02-14 13:31:00,65.0,44.0,30.19,East,85,0.0,2.0,46,0.00,,,0.00,,2013-02-14 21:31:00,
2013-02-14 13:41:00,65.0,44.0,30.19,East,85,0.0,2.0,46,0.00,,,0.00,,2013-02-14 21:41:00,
2013-02-14 13:51:00,66.0,45.0,30.19,ENE,61,0.0,2.0,46,0.00,,,0.00,,2013-02-14 21:51:00,
2013-02-14 14:02:00,66.0,42.0,30.18,East,94,0.0,2.0,41,0.00,,,0.00,,2013-02-14 22:02:00,
2013-02-14 14:11:00,66.0,45.0,30.18,ESE,111,0.0,3.0,46,0.00,,,0.00,,2013-02-14 22:11:00,
2013-02-14 14:21:00,66.0,45.0,30.18,ESE,111,0.0,3.0,46,0.00,,,0.00,,2013-02-14 22:21:00,
2013-02-14 14:31:00,67.0,46.0,30.17,SE,129,0.0,4.0,46,0.00,,,0.00,,2013-02-14 22:31:00,
2013-02-14 14:41:00,67.0,46.0,30.17,SE,129,0.0,4.0,46,0.00,,,0.00,,2013-02-14 22:41:00,
2013-02-14 14:51:00,67.0,47.0,30.17,SE,140,0.0,4.0,48,0.00,,,0.00,,2013-02-14 22:51:00,
2013-02-14 15:01:00,66.0,46.0,30.17,SE,124,1.0,3.0,48,0.00,,,0.00,,2013-02-14 23:01:00,
2013-02-14 15:11:00,66.0,46.0,30.17,SE,124,1.0,3.0,48,0.00,,,0.00,,2013-02-14 23:11:00,
2013-02-14 15:21:00,66.0,45.0,30.17,SE,134,2.0,4.0,47,0.00,,,0.00,,2013-02-14 23:21:00,
2013-02-14 15:31:00,65.0,45.0,30.17,SE,133,1.0,4.0,49,0.00,,,0.00,,2013-02-14 23:31:00,
2013-02-14 15:41:00,65.0,45.0,30.17,SE,133,1.0,4.0,49,0.00,,,0.00,,2013-02-14 23:41:00,
2013-02-14 15:52:00,66.0,46.0,30.16,SE,133,0.0,2.0,48,0.00,,,0.00,,2013-02-14 23:52:00,
2013-02-14 16:01:00,66.0,46.0,30.16,ESE,105,1.0,4.0,48,0.00,,,0.00,,2013-02-15 00:01:00,
2013-02-14 16:11:00,66.0,46.0,30.16,ESE,105,1.0,4.0,48,0.00,,,0.00,,2013-02-15 00:11:00,
2013-02-14 16:21:00,65.0,46.0,30.16,ESE,113,1.0,3.0,50,0.00,,,0.00,,2013-02-15 00:21:00,
2013-02-14 16:31:00,65.0,47.0,30.16,ESE,123,2.0,4.0,52,0.00,,,0.00,,2013-02-15 00:31:00,
2013-02-14 16:41:00,65.0,47.0,30.16,ESE,123,2.0,4.0,52,0.00,,,0.00,,2013-02-15 00:41:00,
2013-02-14 16:51:00,65.0,47.0,30.16,ESE,123,2.0,4.0,52,0.00,,,0.00,,2013-02-15 00:51:00,
2013-02-14 17:01:00,64.0,47.0,30.15,SE,130,0.0,3.0,54,0.00,,,0.00,,2013-02-15 01:01:00,
2013-02-14 17:11:00,64.0,47.0,30.15,SE,130,0.0,3.0,54,0.00,,,0.00,,2013-02-15 01:11:00,
2013-02-14 17:21:00,63.0,48.0,30.16,SE,133,0.0,2.0,59,0.00,,,0.00,,2013-02-15 01:21:00,
2013-02-14 17:31:00,62.0,47.0,30.16,SE,133,0.0,1.0,58,0.00,,,0.00,,2013-02-15 01:31:00,
2013-02-14 17:41:00,62.0,47.0,30.16,SE,133,0.0,1.0,58,0.00,,,0.00,,2013-02-15 01:41:00,
2013-02-14 17:51:00,61.0,46.0,30.15,SE,133,0.0,0.0,58,0.00,,,0.00,,2013-02-15 01:51:00,
2013-02-14 18:01:00,60.0,46.0,30.15,SE,133,0.0,1.0,59,0.00,,,0.00,,2013-02-15 02:01:00,
2013-02-14 18:11:00,60.0,46.0,30.15,SE,133,0.0,1.0,59,0.00,,,0.00,,2013-02-15 02:11:00,
2013-02-14 18:21:00,60.0,46.0,30.15,SE,133,0.0,1.0,59,0.00,,,0.00,,2013-02-15 02:21:00,
2013-02-14 18:31:00,56.0,45.0,30.16,SE,133,0.0,1.0,66,0.00,,,0.00,,2013-02-15 02:31:00,
2013-02-14 18:41:00,56.0,45.0,30.16,SE,133,0.0,1.0,66,0.00,,,0.00,,2013-02-15 02:41:00,
2013-02-14 18:52:00,55.0,45.0,30.16,SE,133,0.0,0.0,68,0.00,,,0.00,,2013-02-15 02:52:00,
2013-02-14 19:01:00,54.0,44.0,30.16,SE,133,0.0,0.0,70,0.00,,,0.00,,2013-02-15 03:01:00,
2013-02-14 19:11:00,54.0,44.0,30.16,SE,133,0.0,0.0,70,0.00,,,0.00,,2013-02-15 03:11:00,
2013-02-14 19:21:00,53.0,44.0,30.16,SE,133,0.0,0.0,71,0.00,,,0.00,,2013-02-15 03:21:00,
2013-02-14 19:31:00,52.0,44.0,30.16,SE,133,0.0,1.0,73,0.00,,,0.00,,2013-02-15 03:31:00,
2013-02-14 19:41:00,52.0,44.0,30.16,SE,133,0.0,1.0,73,0.00,,,0.00,,2013-02-15 03:41:00,
2013-02-14 19:52:00,51.0,43.0,30.16,SE,133,0.0,1.0,75,0.00,,,0.00,,2013-02-15 03:52:00,
2013-02-14 20:01:00,50.0,43.0,30.16,SE,133,0.0,0.0,77,0.00,,,0.00,,2013-02-15 04:01:00,
2013-02-14 20:11:00,50.0,43.0,30.16,SE,133,0.0,0.0,77,0.00,,,0.00,,2013-02-15 04:11:00,
2013-02-14 20:21:00,50.0,43.0,30.16,SE,133,0.0,0.0,78,0.00,,,0.00,,2013-02-15 04:21:00,
2013-02-14 20:31:00,50.0,43.0,30.16,SE,133,0.0,0.0,78,0.00,,,0.00,,2013-02-15 04:31:00,
2013-02-14 20:41:00,50.0,43.0,30.16,SE,133,0.0,0.0,78,0.00,,,0.00,,2013-02-15 04:41:00,
2013-02-14 20:52:00,48.0,42.0,30.17,SE,133,0.0,0.0,81,0.00,,,0.00,,2013-02-15 04:52:00,
2013-02-14 21:01:00,47.0,42.0,30.17,SE,133,0.0,0.0,83,0.00,,,0.00,,2013-02-15 05:01:00,
2013-02-14 21:11:00,47.0,42.0,30.17,SE,133,0.0,0.0,83,0.00,,,0.00,,2013-02-15 05:11:00,
2013-02-14 21:22:00,47.0,43.0,30.17,SE,133,0.0,0.0,85,0.00,,,0.00,,2013-02-15 05:22:00,
2013-02-14 21:32:00,46.0,42.0,30.18,SE,133,0.0,0.0,86,0.00,,,0.00,,2013-02-15 05:32:00,
2013-02-14 21:41:00,46.0,42.0,30.18,SE,133,0.0,0.0,86,0.00,,,0.00,,2013-02-15 05:41:00,
2013-02-14 21:52:00,46.0,42.0,30.18,SE,133,0.0,0.0,86,0.00,,,0.00,,2013-02-15 05:52:00,
2013-02-14 22:01:00,46.0,42.0,30.18,SE,133,0.0,0.0,86,0.00,,,0.00,,2013-02-15 06:01:00,
2013-02-14 22:11:00,46.0,42.0,30.19,SE,133,0.0,0.0,86,0.00,,,0.00,,2013-02-15 06:11:00,
2013-02-14 22:21:00,46.0,42.0,30.19,SE,133,0.0,0.0,86,0.00,,,0.00,,2013-02-15 06:21:00,
2013-02-14 22:31:00,45.0,42.0,30.19,SE,133,0.0,0.0,88,0.00,,,0.00,,2013-02-15 06:31:00,
2013-02-14 22:42:00,45.0,42.0,30.19,SE,133,0.0,0.0,88,0.00,,,0.00,,2013-02-15 06:42:00,
2013-02-14 22:51:00,45.0,42.0,30.20,SE,133,0.0,0.0,88,0.00,,,0.00,,2013-02-15 06:51:00,
2013-02-14 23:01:00,44.0,41.0,30.20,SE,133,0.0,0.0,89,0.00,,,0.00,,2013-02-15 07:01:00,
2013-02-14 23:11:00,44.0,41.0,30.20,SE,133,0.0,0.0,89,0.00,,,0.00,,2013-02-15 07:11:00,
2013-02-14 23:21:00,44.0,41.0,30.20,SE,133,0.0,0.0,90,0.00,,,0.00,,2013-02-15 07:21:00,
2013-02-14 23:31:00,43.0,40.0,30.21,SE,133,0.0,1.0,90,0.00,,,0.00,,2013-02-15 07:31:00,
2013-02-14 23:41:00,43.0,40.0,30.21,SE,133,0.0,1.0,90,0.00,,,0.00,,2013-02-15 07:41:00,
2013-02-14 23:52:00,43.0,40.0,30.22,SE,133,0.0,0.0,90,0.00,,,0.00,,2013-02-15 07:52:00,